Total_Precipitation_Accumulation
0.04 0.03 0.03 0.04 0.03 0.02 0.00 0.00 0.00 0.00 0.00 0.00 0.00 0.00 0.00 0.00 0.00 0.01 0.01 0.01 0.02 0.04 0.08 0.16 0.21 0.24 0.27 0.29 0.29 0.28 0.26 0.27 0.30 0.31 0.33 0.35 0.35 0.35 0.36 0.37 0.38 0.39 0.40 0.42 0.41 0.40 0.37 0.28 0.25
0.04 0.03 0.05 0.06 0.03 0.01 0.00 0.00 0.00 0.00 0.00 0.00 0.00 0.00 0.00 0.00 0.00 0.00 0.00 0.01 0.01 0.02 0.05 0.12 0.21 0.25 0.29 0.29 0.30 0.30 0.29 0.29 0.31 0.34 0.36 0.36 0.36 0.37 0.39 0.38 0.37 0.38 0.40 0.45 0.45 0.43 0.41 0.34 0.31
0.05 0.06 0.08 0.07 0.03 0.00 0.00 0.00 0.00 0.00 0.00 0.00 0.00 0.00 0.00 0.00 0.00 0.01 0.01 0.01 0.01 0.02 0.04 0.11 0.22 0.28 0.32 0.34 0.35 0.34 0.34 0.34 0.35 0.36 0.38 0.40 0.40 0.40 0.39 0.36 0.34 0.34 0.34 0.36 0.39 0.44 0.47 0.47 0.42
0.08 0.13 0.12 0.07 0.01 0.00 0.00 0.00 0.00 0.00 0.00 0.00 0.00 0.00 0.00 0.00 0.00 0.01 0.01 0.01 0.02 0.02 0.04 0.12 0.22 0.30 0.35 0.39 0.38 0.37 0.38 0.39 0.40 0.41 0.41 0.45 0.48 0.46 0.43 0.40 0.37 0.34 0.32 0.36 0.38 0.44 0.52 0.50 0.45
0.12 0.16 0.13 0.06 0.01 0.00 0.00 0.00 0.00 0.00 0.00 0.00 0.00 0.00 0.00 0.00 0.00 0.01 0.01 0.02 0.03 0.04 0.07 0.13 0.22 0.32 0.37 0.41 0.42 0.42 0.44 0.45 0.46 0.46 0.47 0.49 0.50 0.50 0.46 0.44 0.40 0.37 0.35 0.35 0.36 0.40 0.49 0.48 0.44
0.16 0.18 0.11 0.04 0.01 0.00 0.00 0.00 0.00 0.00 0.00 0.00 0.00 0.00 0.00 0.00 0.00 0.00 0.00 0.01 0.01 0.03 0.05 0.11 0.23 0.32 0.38 0.44 0.47 0.49 0.53 0.55 0.55 0.54 0.57 0.57 0.54 0.52 0.49 0.46 0.41 0.39 0.37 0.35 0.35 0.37 0.41 0.42 0.39
0.16 0.16 0.08 0.03 0.01 0.00 0.00 0.00 0.00 0.00 0.00 0.00 0.00 0.00 0.00 0.00 0.00 0.00 0.01 0.01 0.03 0.05 0.08 0.13 0.23 0.33 0.41 0.49 0.54 0.57 0.61 0.63 0.63 0.63 0.64 0.66 0.63 0.60 0.55 0.48 0.43 0.41 0.39 0.39 0.38 0.35 0.32 0.32 0.32
0.19 0.19 0.09 0.03 0.02 0.01 0.00 0.00 0.00 0.01 0.00 0.00 0.00 0.00 0.00 0.01 0.01 0.01 0.02 0.04 0.06 0.08 0.11 0.16 0.25 0.32 0.40 0.50 0.57 0.64 0.68 0.69 0.75 0.77 0.70 0.69 0.73 0.73 0.67 0.55 0.49 0.46 0.43 0.41 0.40 0.36 0.30 0.25 0.25
0.24 0.28 0.11 0.03 0.02 0.02 0.01 0.01 0.01 0.01 0.01 0.01 0.00 0.00 0.01 0.02 0.02 0.04 0.05 0.08 0.11 0.14 0.17 0.21 0.29 0.37 0.43 0.49 0.56 0.69 0.80 0.84 0.88 0.91 0.82 0.79 0.79 0.75 0.68 0.57 0.53 0.49 0.45 0.41 0.41 0.39 0.36 0.31 0.25
0.29 0.23 0.08 0.02 0.02 0.03 0.03 0.03 0.03 0.04 0.02 0.01 0.01 0.01 0.02 0.03 0.05 0.07 0.08 0.10 0.13 0.16 0.20 0.25 0.32 0.40 0.51 0.57 0.64 0.73 0.82 0.89 0.89 0.80 0.81 0.82 0.76 0.71 0.65 0.63 0.61 0.54 0.50 0.48 0.46 0.42 0.38 0.35 0.28
0.22 0.15 0.06 0.03 0.03 0.04 0.06 0.06 0.05 0.06 0.05 0.03 0.03 0.03 0.04 0.05 0.07 0.08 0.10 0.12 0.14 0.16 0.21 0.28 0.36 0.45 0.55 0.60 0.66 0.72 0.77 0.82 0.84 0.76 0.70 0.71 0.73 0.70 0.68 0.62 0.60 0.58 0.57 0.57 0.53 0.49 0.40 0.36 0.35
0.16 0.10 0.07 0.05 0.05 0.07 0.07 0.08 0.07 0.06 0.06 0.05 0.05 0.04 0.05 0.08 0.09 0.11 0.12 0.14 0.17 0.22 0.26 0.31 0.39 0.48 0.56 0.63 0.67 0.69 0.72 0.73 0.73 0.74 0.73 0.69 0.68 0.60 0.58 0.58 0.52 0.50 0.50 0.52 0.54 0.48 0.43 0.37 0.34
0.14 0.09 0.07 0.07 0.08 0.09 0.10 0.11 0.09 0.05 0.05 0.06 0.07 0.07 0.07 0.09 0.11 0.14 0.16 0.17 0.19 0.24 0.30 0.35 0.43 0.51 0.58 0.67 0.73 0.74 0.73 0.68 0.67 0.70 0.76 0.71 0.63 0.57 0.57 0.55 0.54 0.52 0.46 0.41 0.40 0.38 0.36 0.33 0.31
0.14 0.12 0.09 0.09 0.10 0.12 0.15 0.13 0.12 0.07 0.05 0.08 0.09 0.10 0.09 0.10 0.13 0.17 0.21 0.22 0.21 0.26 0.33 0.40 0.47 0.54 0.62 0.67 0.71 0.74 0.75 0.75 0.76 0.74 0.72 0.74 0.70 0.60 0.60 0.61 0.56 0.53 0.51 0.44 0.38 0.33 0.31 0.30 0.28
0.18 0.20 0.16 0.11 0.10 0.11 0.20 0.23 0.12 0.06 0.07 0.09 0.10 0.12 0.12 0.11 0.13 0.16 0.22 0.26 0.24 0.28 0.37 0.45 0.49 0.60 0.68 0.68 0.75 0.77 0.78 0.80 0.81 0.78 0.76 0.78 0.75 0.72 0.66 0.62 0.60 0.55 0.54 0.54 0.50 0.43 0.36 0.32 0.28
0.28 0.36 0.29 0.15 0.12 0.13 0.26 0.26 0.09 0.06 0.09 0.11 0.12 0.12 0.12 0.11 0.11 0.14 0.21 0.29 0.29 0.32 0.39 0.47 0.55 0.61 0.69 0.72 0.76 0.82 0.84 0.83 0.85 0.88 0.86 0.84 0.82 0.79 0.79 0.71 0.64 0.58 0.60 0.62 0.61 0.56 0.47 0.39 0.34
0.42 0.40 0.28 0.18 0.16 0.19 0.27 0.23 0.09 0.08 0.12 0.13 0.14 0.12 0.12 0.12 0.10 0.12 0.19 0.27 0.32 0.34 0.40 0.49 0.59 0.61 0.68 0.80 0.80 0.82 0.88 0.92 0.93 0.98 1.00 0.94 0.89 0.85 0.85 0.84 0.77 0.69 0.68 0.65 0.61 0.57 0.51 0.44 0.39
0.41 0.30 0.23 0.19 0.19 0.22 0.24 0.19 0.12 0.10 0.13 0.13 0.15 0.12 0.12 0.12 0.10 0.12 0.18 0.24 0.33 0.38 0.43 0.52 0.62 0.68 0.73 0.89 0.98 0.92 0.93 0.97 1.00 1.00 0.98 1.00 0.98 0.87 0.82 0.85 0.85 0.79 0.74 0.70 0.64 0.58 0.49 0.43 0.39
0.27 0.32 0.28 0.19 0.18 0.24 0.24 0.18 0.11 0.10 0.10 0.12 0.12 0.12 0.11 0.10 0.10 0.11 0.17 0.22 0.32 0.43 0.48 0.56 0.61 0.71 0.83 0.91 1.03 0.98 0.93 0.94 0.97 0.96 0.94 0.92 0.97 0.94 0.86 0.80 0.80 0.81 0.77 0.70 0.66 0.64 0.60 0.51 0.43
0.34 0.38 0.30 0.22 0.18 0.28 0.28 0.19 0.11 0.10 0.10 0.11 0.10 0.12 0.14 0.11 0.10 0.11 0.18 0.23 0.29 0.43 0.48 0.55 0.65 0.73 0.79 0.86 0.90 0.94 0.92 0.93 0.96 0.95 0.95 0.92 0.90 0.90 0.91 0.84 0.77 0.72 0.72 0.72 0.67 0.65 0.63 0.57 0.48
0.41 0.34 0.26 0.25 0.23 0.30 0.36 0.29 0.13 0.11 0.09 0.10 0.09 0.10 0.15 0.16 0.13 0.13 0.21 0.27 0.30 0.41 0.49 0.55 0.65 0.73 0.78 0.92 1.00 1.05 1.16 1.13 1.11 1.09 1.01 0.94 0.89 0.83 0.82 0.82 0.78 0.73 0.66 0.66 0.64 0.60 0.58 0.56 0.46
0.44 0.23 0.22 0.26 0.41 0.48 0.42 0.47 0.18 0.13 0.12 0.11 0.10 0.09 0.12 0.14 0.14 0.15 0.19 0.27 0.30 0.37 0.49 0.58 0.68 0.73 0.76 0.95 1.10 1.05 1.11 1.08 1.00 0.96 0.97 0.95 0.90 0.84 0.78 0.75 0.74 0.74 0.69 0.60 0.57 0.57 0.57 0.58 0.54
0.34 0.21 0.25 0.33 0.47 0.56 0.42 0.49 0.24 0.12 0.12 0.10 0.09 0.08 0.10 0.12 0.13 0.13 0.14 0.18 0.25 0.32 0.45 0.58 0.71 0.80 0.81 0.88 1.07 1.09 1.00 0.95 0.94 0.99 0.98 0.98 0.96 0.90 0.82 0.76 0.72 0.69 0.68 0.62 0.55 0.55 0.56 0.59 0.59
0.32 0.39 0.44 0.49 0.75 0.94 0.37 0.37 0.28 0.20 0.21 0.13 0.08 0.07 0.09 0.10 0.12 0.12 0.11 0.12 0.23 0.32 0.42 0.53 0.66 0.78 0.84 0.84 0.94 1.09 1.02 0.94 0.92 0.99 1.05 1.03 1.01 0.97 0.89 0.79 0.74 0.69 0.65 0.63 0.58 0.53 0.54 0.54 0.54
0.53 0.82 1.17 1.19 1.22 0.77 0.17 0.25 0.28 0.19 0.17 0.17 0.12 0.09 0.09 0.10 0.13 0.14 0.12 0.13 0.20 0.30 0.38 0.47 0.59 0.67 0.75 0.79 0.84 0.91 1.01 0.97 0.89 0.86 0.92 1.00 1.03 0.96 0.89 0.85 0.77 0.71 0.66 0.64 0.62 0.60 0.55 0.53 0.54
0.55 0.75 0.98 0.89 0.58 0.23 0.10 0.21 0.22 0.14 0.10 0.10 0.08 0.06 0.07 0.08 0.09 0.11 0.13 0.15 0.18 0.23 0.29 0.39 0.48 0.61 0.73 0.79 0.79 0.83 0.92 1.03 0.94 0.87 0.84 0.88 0.92 0.87 0.79 0.80 0.78 0.71 0.66 0.66 0.67 0.66 0.60 0.56 0.56
0.52 0.56 0.49 0.63 0.46 0.30 0.20 0.17 0.14 0.06 0.05 0.07 0.07 0.06 0.05 0.05 0.07 0.09 0.12 0.14 0.16 0.21 0.25 0.34 0.42 0.53 0.67 0.79 0.82 0.81 0.84 0.93 0.96 0.88 0.84 0.84 0.84 0.83 0.82 0.80 0.80 0.75 0.73 0.72 0.73 0.71 0.65 0.60 0.59
0.44 0.52 0.65 0.93 0.78 0.41 0.22 0.19 0.20 0.12 0.10 0.08 0.08 0.07 0.05 0.05 0.06 0.08 0.10 0.13 0.15 0.19 0.22 0.29 0.38 0.45 0.56 0.71 0.86 0.86 0.82 0.81 0.88 0.90 0.88 0.83 0.82 0.82 0.83 0.86 0.86 0.81 0.76 0.78 0.80 0.76 0.68 0.66 0.64
0.54 0.69 0.88 0.91 0.64 0.46 0.28 0.24 0.24 0.17 0.14 0.13 0.10 0.09 0.07 0.06 0.07 0.08 0.10 0.13 0.16 0.19 0.24 0.31 0.37 0.43 0.48 0.57 0.74 0.85 0.84 0.85 0.89 0.93 0.91 0.87 0.83 0.81 0.80 0.81 0.87 0.90 0.83 0.76 0.82 0.80 0.75 0.73 0.69
0.47 0.61 0.77 0.92 0.64 0.34 0.29 0.24 0.19 0.14 0.13 0.13 0.11 0.09 0.07 0.05 0.05 0.06 0.08 0.13 0.17 0.21 0.25 0.31 0.39 0.42 0.44 0.50 0.61 0.73 0.82 0.85 0.90 0.90 0.95 0.99 0.95 0.84 0.77 0.76 0.82 0.89 0.87 0.80 0.79 0.79 0.75 0.75 0.73